Location: *
(43.7000°S, 168.7000°W)
Time: 15:04:50
(UTC+00:00)

Cosmos 1470 - Pass Details

Date: 07 July 2020
Orbit: 522 x 541 km, 82.5° (Epoch: 04 August)

Event Time Altitude Azimuth Distance (km) Brightness Sun altitude
Exits shadow 16:56:46 12° 184° (S) 1,698 5.1 -19.4°
Maximum altitude 17:00:27 72° 99° (E) 572 3.0 -18.7°
Drops below altitude 10° 17:04:22 10° 14° (NNE) 1,780 5.8 -18.0°
Sets 17:06:29 0° 12° (NNE) 2,658 6.7 -17.6°
